Location: Sungai Liu
(2.3667°N, 113.8667°E)
Time: 13:15:35
(UTC+00:00)

NOSS 3-1 (A) - Pass Details

Date: 20 May 2022
Orbit: 711 x 1501 km, 63.4° (Epoch: 21 May)

Event Time Altitude Azimuth Distance (km) Brightness Sun altitude
Rises 20:22:58 0° 326° (NW) 4,463 6.8 -26.6°
Reaches altitude 10° 20:25:55 10° 321° (NW) 3,552 6.3 -26.0°
Maximum altitude 20:34:33 52° 248° (WSW) 1,811 4.4 -24.0°
Drops below altitude 10° 20:43:19 10° 174° (S) 3,591 6.3 -22.0°
Sets 20:46:20 0° 169° (S) 4,514 6.8 -21.3°
